Tracking 28792 objects as of 25-Apr-2024
HD Live streaming from Space Station
objects crossing your sky now

BREEZE-M R/B

Track BREEZE-M R/B now!


NORAD ID: 39488
Int'l Code: 2013-077B
Perigee: 36,589.9 km
Apogee: 41,590.4 km
Inclination: 8.5 °
Period: 1,607.8 minutes
Semi major axis: 45461 km
RCS: Unknown
Launch date: December 26, 2013
Source: Commonwealth of Independent States (former USSR) (CIS)
Launch site: TYURATAM MISSILE AND SPACE COMPLEX (TTMTR)

Note: This is a ROCKET BODY
Your satellite tracking list
Your tracking list is empty




NASA's NSSDC Master Catalog

Two Line Element Set (TLE):
1 39488U 13077B   24115.25488167 -.00000138  00000-0  00000-0 0  9997
2 39488   8.4794  65.4476 0549969 166.6425 194.8299  0.89565876 33653
Source of the keplerian elements: AFSPC